STARLINK-34272, 64274

Orbit data source: Space-Track

STARLINK-34272, 64274 is a payload satellite owned by SpaceX/Seattle (US) in LEO that was launched on Wed, 04 Jun 2025 UTC via an FALCON 9 launch vehicle from the Air Force Western Test Range (AFWTR). Payload-class satellites include a variety of spacecraft equipped with specific instruments for various scientific and technological missions. These include communications satellites like Starlink; space stations such as the ISS; scientific satellites like the Hubble; Earth observation satellites from companies like Planet Labs, Umbra, and HawkEye 360; GPS; miniature CubeSats for education and research; and military/defense satellites.

Loading next visibility...
Identifier
64274, 2025-120U
Orbit
LEO
Country
Flag of USUS
Related business
Manufacturer
SpaceX/Seattle
Mission
Operational Commercial Communications
Bus & Motor
STARLINK V2MO, Unknown motor
Mass
575 kg wet, ~530 kg dry
Launch date (UTC)
2025-06-04 (1 year ago)
Launch vehicle
FALCON 9
Launch site
Air Force Western Test Range (AFWTR)
Object type
Payload
Rocket body
Debris
Shape & HBR
Box + 2 Pan, 17.7 m
Radar Cross Section
36.964 m², Large (>1 m²)

Expand to show TLE details & history
Last TLE update: 22 hours ago

TLE from 22 hours ago
0 STARLINK-34272
1 64274U 25120U   26170.91487079  .00015959  00000-0  54952-3 0  9991
2 64274  53.1622   2.1237 0000801  91.4392 268.6700 15.30215307 59466
Epoch: 2026-06-19T21:57Z
TLE epoch observation values (Epoch: 2026-06-19T21:57:24.836Z)
Latitude
-0.00006°
Longitude
124.63317°
Altitude
476.082 km
Speed
7.629 km/s
True Right ascension
00h 08m 29s
True Declination
0° 00' 00"
Sunlit
Object was in daylight at epoch
Visualization orbit readout
Latitude
Unknown
Longitude
Unknown
Altitude
Unknown
Speed
Unknown
Apparent Right ascension
Unknown
Apparent Declination
Unknown
Sunlit
N/A
Visualization observer readout
Local Sidereal Time
07:13:23
Azimuth
Unknown
Elevation
Unknown
Doppler factor
Unknown
Orbital elements
Apogee altitude
475.974 km
Perigee altitude
474.876 km
Semi-major axis
6,853.562 km
Eccentricity
0.00008
Inclination
53.1622°
RAAN
2.1237°
Arg. of periapsis
91.4392°
True anomaly
268.66082°
Mean anomaly
268.67°
Eccentric anomaly
268.66541°
Mean motion
3.82533 °/min
Orbital period
94.11 mins
BSTAR
0.00054952
Loading maneuver chart data...
Computing Atmospheric mass density...
Loading historical data...
Loading historical data...
Loading historical data...
Loading historical data...
Loading historical data...
Loading historical data...
Loading historical data...

Documentation

Showing up to 5 results
|